Amateur Radio Satellites - All Passes

Search period start: 19 June 2013 18:15
Search period end: 20 June 2013 18:15
Location: Forestville, 38.4740°N, 122.8890°W

Satellite Date Start Highest point End Downlink Frequencies (MHz)
Time Altitude Azimuth
STRAND 1 19 Jun 18:34:32 18:38:00 18° 93° (E) 18:41:27 ?
KITSAT 1 19 Jun 18:48:53 18:56:35 47° 307° (NW) 19:04:22 435.175 FM
Hamsat 19 Jun 18:58:59 19:03:04 42° 73° (ENE) 19:07:12 145.90 MHz
JAS-1B 19 Jun 19:01:06 19:07:18 36° 69° (ENE) 19:12:45 435.800 - 435.900 CW/SSB
SO-67 19 Jun 19:34:57 19:38:03 28° 72° (ENE) 19:41:10 435.3500 MHz FM
RS-15 19 Jun 19:53:36 20:03:51 39° 43° (NE) 20:13:48 29.354 - 29.394 USB, Beacon 29.352 USB
MaSat-1 19 Jun 19:55:50 20:01:37 78° 113° (ESE) 20:06:05 437.345 MHz
STRAND 1 19 Jun 20:12:28 20:17:27 50° 288° (WNW) 20:22:24 ?
Hamsat 19 Jun 20:36:43 20:39:20 16° 268° (W) 20:41:58 145.90 MHz
ISS 19 Jun 20:44:14 20:45:31 12° 15° (NNE) 20:46:48 145.800 FM
KITSAT 1 19 Jun 20:50:42 20:54:20 13° 332° (NNW) 20:58:00 435.175 FM
JAS-1B 19 Jun 20:51:40 20:57:56 33° 261° (W) 21:03:28 435.800 - 435.900 CW/SSB
JAS-2 19 Jun 20:55:06 21:01:20 31° 67° (ENE) 21:07:02 435.800 - 435.900 CW/SSB, 435.910 FM
AO-40 19 Jun 21:04:08 03:00:59 46° 176° (S) 09:35:28 Beacon 2401.320
HO-68 19 Jun 21:05:24 21:12:05 45° 66° (ENE) 21:18:48 435.675 MHz FM
SO-67 19 Jun 21:09:27 21:11:32 15° 267° (W) 21:13:38 435.3500 MHz FM
Saudisat 1A 19 Jun 21:22:06 21:24:59 17° 109° (ESE) 21:27:53 436.775 MHz
PANSAT 19 Jun 21:36:27 21:38:22 13° 167° (SSE) 21:40:17 not established
MaSat-1 19 Jun 21:41:35 21:43:33 12° 304° (WNW) 21:45:22 437.345 MHz
OPAL 19 Jun 21:44:35 21:47:20 15° 60° (ENE) 21:50:03 ?
RS-15 19 Jun 22:06:00 22:16:45 63° 247° (WSW) 22:27:22 29.354 - 29.394 USB, Beacon 29.352 USB
Oscar 11 19 Jun 22:16:45 22:21:07 88° 77° (ENE) 22:25:31 145.825 FM, Beacon 2401.500 USB
ISS 19 Jun 22:19:45 22:22:56 43° 34° (NE) 22:26:07 145.800 FM
JAS-2 19 Jun 22:38:58 22:46:08 48° 260° (W) 22:52:39 435.800 - 435.900 CW/SSB, 435.910 FM
HO-68 19 Jun 22:53:36 22:59:51 33° 263° (W) 23:06:10 435.675 MHz FM
Saudisat 1A 19 Jun 22:59:50 23:04:16 50° 305° (NW) 23:08:45 436.775 MHz
PANSAT 19 Jun 23:15:20 23:18:05 19° 179° (S) 23:20:50 not established
OPAL 19 Jun 23:20:41 23:25:41 65° 256° (WSW) 23:30:40 ?
Oscar 10/S400 19 Jun 23:23:37 04:45:40 28° 85° (E) 07:00:20 145.825 - 145.975 CW/USB, Beacon 145.810 USB
ISS 19 Jun 23:57:04 23:59:26 18° 230° (SW) 00:01:48 145.800 FM
SO-50 20 Jun 00:13:38 00:15:39 13° 108° (ESE) 00:17:40 436.795 FM
PCSat 20 Jun 00:38:28 00:43:32 43° 111° (ESE) 00:48:38 145.825 MHz
KITSAT 1 20 Jun 00:48:57 00:54:16 18° 35° (NE) 00:59:33 435.175 FM
PANSAT 20 Jun 00:55:44 00:57:49 14° 192° (SSW) 00:59:53 not established
Sapphire 20 Jun 01:12:40 01:18:04 83° 116° (ESE) 01:23:31 437.095 MHz 1200 baud AX-25 AFSK
ITAMSAT 1 20 Jun 01:50:55 01:52:06 11° 89° (E) 01:53:17 435.822 SSB
SO-50 20 Jun 01:50:58 01:55:43 69° 303° (WNW) 02:00:25 436.795 FM
AO-27 20 Jun 01:51:45 01:53:27 12° 90° (E) 01:55:08 436.795 MHz FM
Oscar 16 20 Jun 02:06:54 02:11:04 25° 95° (E) 02:15:12 437.025 USB, Beacon 2401.1428
Uribyol 2 20 Jun 02:21:40 02:25:54 25° 95° (E) 02:30:06 436.500 FM
PCSat 20 Jun 02:22:34 02:27:06 27° 309° (NW) 02:31:40 145.825 MHz
KITSAT 1 20 Jun 02:43:09 02:51:17 69° 58° (ENE) 02:59:22 435.175 FM
Sapphire 20 Jun 02:58:56 03:02:11 16° 315° (NW) 03:05:27 437.095 MHz 1200 baud AX-25 AFSK
Oscar 19 20 Jun 03:00:10 03:05:17 72° 102° (ESE) 03:10:23 437.125 CW, 437.150 USB
ITAMSAT 1 20 Jun 03:26:56 03:32:11 81° 285° (WNW) 03:37:23 435.822 SSB
UOSAT-12 20 Jun 03:27:45 03:31:25 25° 112° (ESE) 03:35:08 437.025 FM, 437.400 FM
AO-27 20 Jun 03:28:16 03:33:31 77° 285° (WNW) 03:38:43 436.795 MHz FM
Gurwin Techsat 1B 20 Jun 03:30:36 03:33:15 14° 91° (E) 03:35:53 435.225 FM
SO-50 20 Jun 03:36:08 03:37:11 11° 321° (NW) 03:38:15 436.795 FM
Oscar 16 20 Jun 03:45:50 03:50:29 36° 290° (WNW) 03:55:07 437.025 USB, Beacon 2401.1428
AO-Echo 20 Jun 03:56:14 04:01:26 76° 102° (ESE) 04:06:43 ?
Uribyol 2 20 Jun 04:00:41 04:05:27 37° 291° (WNW) 04:10:11 436.500 FM
Uosat F 20 Jun 04:16:51 04:21:38 41° 99° (E) 04:26:23 435.120 FM
AO-7 20 Jun 04:26:00 04:29:22 13° 89° (E) 04:32:41 29.400 - 29.500 MHz
TMSAT-1 20 Jun 04:27:45 04:32:32 34° 97° (E) 04:37:17 436.925 FM
KITSAT 1 20 Jun 04:39:46 04:45:57 25° 256° (WSW) 04:52:09 435.175 FM
Oscar 19 20 Jun 04:41:34 04:44:00 14° 298° (WNW) 04:46:27 437.125 CW, 437.150 USB
UOSAT-12 20 Jun 05:07:21 05:11:26 33° 309° (NW) 05:15:34 437.025 FM, 437.400 FM
Gurwin Techsat 1B 20 Jun 05:08:23 05:13:41 67° 286° (WNW) 05:18:56 435.225 FM
AO-Echo 20 Jun 05:37:11 05:39:35 13° 298° (WNW) 05:42:00 ?
STRAND 1 20 Jun 05:49:10 05:53:10 24° 66° (ENE) 05:57:11 ?
Saudisat 1A 20 Jun 05:50:48 05:52:38 12° 40° (NE) 05:54:28 436.775 MHz
Uosat F 20 Jun 05:56:20 06:00:09 22° 295° (WNW) 06:03:57 435.120 FM
TMSAT-1 20 Jun 06:07:51 06:12:20 29° 293° (WNW) 06:16:48 436.925 FM
AO-7 20 Jun 06:14:56 06:23:20 77° 106° (ESE) 06:31:40 29.400 - 29.500 MHz
MaSat-1 20 Jun 06:22:31 06:24:19 18° 251° (WSW) 06:26:09 437.345 MHz
STRAND 1 20 Jun 07:27:20 07:32:06 39° 262° (W) 07:36:56 ?
Saudisat 1A 20 Jun 07:28:29 07:33:03 87° 59° (ENE) 07:37:29 436.775 MHz
AO-7 20 Jun 08:09:01 08:15:16 24° 305° (NW) 08:21:31 29.400 - 29.500 MHz
Hamsat 20 Jun 08:22:44 08:27:08 75° 284° (WNW) 08:31:27 145.90 MHz
JAS-1B 20 Jun 08:35:25 08:41:21 68° 103° (ESE) 08:48:11 435.800 - 435.900 CW/SSB
SO-67 20 Jun 08:35:58 08:39:26 45° 99° (E) 08:42:52 435.3500 MHz FM
SO-50 20 Jun 08:47:09 08:47:39 10° 38° (NE) 08:48:08 436.795 FM
PCSat 20 Jun 09:28:03 09:32:39 27° 52° (NE) 09:37:13 145.825 MHz
JAS-2 20 Jun 09:51:31 09:55:30 21° 93° (E) 09:59:23 435.800 - 435.900 CW/SSB, 435.910 FM
Sapphire 20 Jun 10:02:17 10:07:33 48° 57° (ENE) 10:12:46 437.095 MHz 1200 baud AX-25 AFSK
Oscar 11 20 Jun 10:07:20 10:10:20 18° 93° (E) 10:13:20 145.825 FM, Beacon 2401.500 USB
SO-67 20 Jun 10:12:06 10:12:26 10° 294° (WNW) 10:12:45 435.3500 MHz FM
RS-15 20 Jun 10:17:12 10:26:09 25° 102° (ESE) 10:34:49 29.354 - 29.394 USB, Beacon 29.352 USB
HO-68 20 Jun 10:21:43 10:28:44 53° 101° (ESE) 10:35:42 435.675 MHz FM
SO-50 20 Jun 10:24:35 10:29:07 70° 58° (ENE) 10:33:34 436.795 FM
JAS-1B 20 Jun 10:27:56 10:31:36 17° 297° (WNW) 10:35:30 435.800 - 435.900 CW/SSB
PCSat 20 Jun 11:11:07 11:16:12 42° 249° (WSW) 11:21:16 145.825 MHz
OPAL 20 Jun 11:32:14 11:36:48 36° 100° (E) 11:41:23 ?
JAS-2 20 Jun 11:35:53 11:40:50 39° 291° (WNW) 11:45:35 435.800 - 435.900 CW/SSB, 435.910 FM
Oscar 11 20 Jun 11:42:39 11:46:40 36° 289° (WNW) 11:50:40 145.825 FM, Beacon 2401.500 USB
Sapphire 20 Jun 11:46:32 11:50:37 22° 254° (WSW) 11:54:40 437.095 MHz 1200 baud AX-25 AFSK
UOSAT-12 20 Jun 11:58:44 12:01:55 18° 45° (NE) 12:05:05 437.025 FM, 437.400 FM
SO-50 20 Jun 12:08:01 12:09:05 11° 253° (WSW) 12:10:09 436.795 FM
HO-68 20 Jun 12:10:04 12:16:02 29° 298° (WNW) 12:22:00 435.675 MHz FM
RS-15 20 Jun 12:25:13 12:37:18 83° 301° (WNW) 12:48:52 29.354 - 29.394 USB, Beacon 29.352 USB
Oscar 19 20 Jun 12:41:17 12:42:14 11° 60° (ENE) 12:43:11 437.125 CW, 437.150 USB
ITAMSAT 1 20 Jun 13:06:44 13:09:50 16° 62° (ENE) 13:12:56 435.822 SSB
AO-27 20 Jun 13:07:59 13:11:14 17° 63° (ENE) 13:14:31 436.795 MHz FM
OPAL 20 Jun 13:11:31 13:15:30 25° 295° (WNW) 13:19:30 ?
Oscar 16 20 Jun 13:22:30 13:27:03 32° 69° (ENE) 13:31:35 437.025 USB, Beacon 2401.1428
UOSAT-12 20 Jun 13:37:54 13:42:26 57° 243° (WSW) 13:46:57 437.025 FM, 437.400 FM
Uribyol 2 20 Jun 13:38:09 13:42:46 33° 68° (ENE) 13:47:24 436.500 FM
Oscar 19 20 Jun 14:15:36 14:20:47 88° 77° (ENE) 14:25:58 437.125 CW, 437.150 USB
RS-15 20 Jun 14:42:01 14:51:39 28° 327° (NNW) 15:00:59 29.354 - 29.394 USB, Beacon 29.352 USB
ITAMSAT 1 20 Jun 14:43:38 14:48:47 62° 259° (WSW) 14:53:59 435.822 SSB
AO-27 20 Jun 14:45:08 14:50:15 59° 259° (W) 14:55:26 436.795 MHz FM
Gurwin Techsat 1B 20 Jun 14:50:03 14:53:50 20° 64° (ENE) 14:57:38 435.225 FM
ISS 20 Jun 15:01:24 15:04:18 29° 133° (SE) 15:07:13 145.800 FM
Oscar 16 20 Jun 15:01:55 15:06:22 29° 264° (W) 15:10:49 437.025 USB, Beacon 2401.1428
AO-Echo 20 Jun 15:08:11 15:12:53 82° 76° (ENE) 15:17:43 ?
Uribyol 2 20 Jun 15:17:46 15:22:13 28° 264° (W) 15:26:43 436.500 FM
AO-7 20 Jun 15:23:10 15:28:37 20° 53° (NE) 15:34:03 29.400 - 29.500 MHz
Uosat F 20 Jun 15:28:47 15:33:36 49° 72° (ENE) 15:38:27 435.120 FM
TMSAT-1 20 Jun 15:47:06 15:52:07 45° 71° (ENE) 15:57:09 436.925 FM
Gurwin Techsat 1B 20 Jun 16:28:18 16:33:25 49° 260° (W) 16:38:35 435.225 FM
ISS 20 Jun 16:38:04 16:40:59 29° 330° (NNW) 16:43:56 145.800 FM
RS-15 20 Jun 17:03:07 17:09:42 16° 2° (N) 17:16:08 29.354 - 29.394 USB, Beacon 29.352 USB
Uosat F 20 Jun 17:09:23 17:12:40 17° 267° (W) 17:15:58 435.120 FM
KITSAT 1 20 Jun 17:09:25 17:17:15 59° 113° (ESE) 17:25:09 435.175 FM
AO-7 20 Jun 17:11:55 17:20:15 87° 72° (ENE) 17:28:39 29.400 - 29.500 MHz
TMSAT-1 20 Jun 17:28:20 17:32:14 21° 267° (W) 17:36:10 436.925 FM

Developed and maintained by Chris Peat, Heavens-Above GmbH. Please read the updated FAQ before sending e-mail. Imprint. DLR
